カタログに戻る

STARLINK-35727

運用中通信VLEO
NORAD 66281·PAYLOAD·🇺🇸 United States

打ち上げ Oct 31, 2025 から Vandenberg Space Force Base

Loading…

次のパス (今後24時間)

TLE

最新Source: CelesTrak SupGP

元期: Sep 14, 2026, 22:54 UTC

1 66281C 25247S   26257.95465278 -.00004514  00000+0 -13341-3 0  2578
2 66281  53.1599  29.4224 0001344  78.9140 218.9581 15.34384427    17

AllMySatでSTARLINK-35727をリアルタイム追跡

Download on the App Store